Aérodrome de Castelnaudary-Villeneuve

LFMW

August 18, 2022

Time Code Weather Temp. Visibility Ceiling Wind METAR/SPECI
21:00
V
22 °C 10 km+ - 280° 280° 16 - 26 kt METAR LFMK 181900Z AUTO 28016G26KT CAVOK 22/14 Q1016
20:30
V
22 °C 10 km+ 10,000 ft 270° 270° 18 - 29 kt METAR LFMK 181830Z AUTO 27018G29KT 9999 FEW046 OVC100 22/14 Q1015
20:00
V
23 °C 10 km+ 11,000 ft 280° 280° 17 kt METAR LFMK 181800Z AUTO 28017KT 9999 SCT045 SCT068 OVC110 23/14 Q1015 NOSIG
19:30
V
24 °C 10 km+ - 270° 270° 14 kt METAR LFMK 181730Z AUTO 27014KT CAVOK 24/14 Q1015 NOSIG
19:00
V
24 °C 10 km+ 10,000 ft 270° 270° 15 kt METAR LFMK 181700Z AUTO 27015KT 240V300 9999 FEW044 OVC100 24/14 Q1015 NOSIG
18:30
V
24 °C 10 km+ 4,500 ft 270° 270° 15 - 27 kt METAR LFMK 181630Z AUTO 27015G27KT 230V290 9999 BKN045 BKN100 BKN240 24/14 Q1015 BECMG 27016KT
18:00
V
24 °C 10 km+ 24,000 ft 270° 270° 16 kt METAR LFMK 181600Z AUTO 27016KT 230V290 9999 SCT040 SCT068 BKN240 24/14 Q1015 NOSIG
17:30
V
25 °C 10 km+ 10,000 ft 270° 270° 18 kt METAR LFMK 181530Z AUTO 27018KT 9999 FEW038 BKN100 BKN230 25/15 Q1015 NOSIG
17:00
V
24 °C 10 km+ 9,600 ft 270° 270° 14 kt METAR LFMK 181500Z AUTO 27014KT 240V300 9999 FEW024 SCT070 BKN096 24/15 Q1015 NOSIG
16:30
V
23 °C 10 km+ 5,400 ft 270° 270° 17 kt METAR LFMK 181430Z AUTO 27017KT 230V290 9999 BKN054/// BKN072/// BKN086/// //////CB 23/14 Q1015 BECMG 29015G25KT BKN020 SCT045
16:00
V
24 °C 10 km+ 8,600 ft 270° 270° 15 kt METAR LFMK 181400Z AUTO 27015KT 9999 FEW046 SCT054 BKN086 24/13 Q1015 TEMPO SCT030TCU BECMG 29015G25KT
15:30
V
24 °C 10 km+ 24,000 ft 280° 280° 16 kt METAR LFMK 181330Z AUTO 28016KT 9999 FEW046 SCT070 BKN240 24/13 Q1015 TEMPO SCT030TCU BECMG 29015G25KT
15:00
V
24 °C 10 km+ - 270° 270° 15 kt METAR LFMK 181300Z AUTO 27015KT 230V300 CAVOK 24/14 Q1015 TEMPO SCT030TCU BECMG 29015G25KT
14:30
V
25 °C 10 km+ - 280° 280° 15 kt METAR LFMK 181230Z AUTO 28015KT 240V310 CAVOK 25/14 Q1015 TEMPO SCT030TCU BECMG 29015G25KT
14:00
V
24 °C 10 km+ - 280° 280° 15 kt METAR LFMK 181200Z AUTO 28015KT 9999 FEW028 24/16 Q1015 TEMPO SCT030TCU BECMG 29015G25KT
13:30
M
22 °C 10 km+ 2,800 ft 270° 270° 15 kt METAR LFMK 181130Z AUTO 27015KT 240V300 9999 BKN028 BKN040 BKN050 22/16 Q1015 TEMPO SCT030TCU BECMG 29015G25KT
13:00
V
22 °C 10 km+ 7,000 ft 270° 270° 11 kt METAR LFMK 181100Z AUTO 27011KT 230V300 9999 FEW032/// SCT049/// BKN070/// ///TCU 22/16 Q1015 BECMG 29015G25KT
12:30
V
21 °C 10 km+ 4,800 ft 260° 260° 11 kt METAR LFMK 181030Z AUTO 26011KT 230V300 9999 FEW025/// SCT040/// BKN048/// //////TCU 21/15 Q1015 BECMG 29015G25KT
12:00
V
23 °C 10 km+ 4,800 ft 270° 270° 12 kt METAR LFMK 181000Z AUTO 27012KT 230V290 9999 FEW024 SCT033 BKN048 23/17 Q1015 TEMPO SCT030TCU BECMG 29015G25KT
11:30
V
21 °C 10 km+ 4,300 ft 270° 270° 11 kt METAR LFMK 180930Z AUTO 27011KT 240V300 9999 FEW014 BKN043 OVC049 21/16 Q1015 TEMPO SCT030TCU BECMG 29015G25KT
11:00
V
20 °C 10 km+ 4,700 ft 270° 270° 11 kt METAR LFMK 180900Z AUTO 27011KT 240V300 9999 FEW014 SCT022 BKN047 20/16 Q1015 BECMG 29015G25KT
10:30
M
19 °C 10 km+ 1,000 ft 270° 270° 11 kt METAR LFMK 180830Z AUTO 27011KT 230V290 9999 BKN010 BKN035 BKN043 19/17 Q1015 BECMG 29015G25KT BKN020
10:00
V
18 °C 10 km+ 4,300 ft 270° 270° 11 kt METAR LFMK 180800Z AUTO 27011KT 240V300 9999 FEW007 SCT025 BKN043 18/16 Q1015 BECMG 29015G25KT
09:30
V
17 °C 10 km+ 3,200 ft 270° 270° 10 kt METAR LFMK 180730Z AUTO 27010KT 9999 BKN032/// BKN039/// OVC045/// //////TCU 17/16 Q1015 BECMG 29015G25KT BKN020
09:00
M
17 °C 10 km+ 2,100 ft 270° 270° 10 kt METAR LFMK 180700Z AUTO 27010KT 230V290 9999 SCT009 BKN021 OVC033 17/16 Q1015 BECMG 29015G25KT
08:30
M
18 °C 10 km+ 1,700 ft 270° 270° 10 kt METAR LFMK 180630Z AUTO 27010KT 9999 FEW011 BKN017 OVC035 18/16 Q1014 BECMG 29015G25KT
08:00
M
18 °C 10 km+ 1,700 ft 270° 270° 11 kt METAR LFMK 180600Z AUTO 27011KT 9999 OVC017 18/16 Q1014 TEMPO BKN013 BECMG 29015G25KT
07:30
M
18 °C 10 km+ 1,500 ft 280° 280° 12 kt METAR LFMK 180530Z AUTO 28012KT 9999 BKN015 OVC033 18/15 Q1014 TEMPO BKN013 BECMG 29015G25KT
07:00
M
18 °C 10 km+ 1,500 ft 280° 280° 11 kt METAR LFMK 180500Z AUTO 28011KT 9999 BKN015 OVC054 18/15 Q1014 TEMPO BKN013
06:30
M
18 °C 10 km+ 1,900 ft 280° 280° 11 kt METAR LFMK 180430Z AUTO 28011KT 240V300 9999 BKN019 OVC024 18/15 Q1014 TEMPO BKN013
06:00
M
18 °C 10 km+ 2,100 ft 280° 280° 11 kt METAR LFMK 180400Z AUTO 28011KT 9999 OVC021 18/15 Q1013 TEMPO BKN013
05:30
M
18 °C 10 km+ 2,200 ft 270° 270° 10 kt METAR LFMK 180330Z AUTO 27010KT 240V300 9999 OVC022 18/15 Q1014 TEMPO BKN013
05:00
M
18 °C 10 km+ 2,000 ft 270° 270° 9 kt METAR LFMK 180300Z AUTO 27009KT 9999 OVC020 18/15 Q1014 TEMPO BKN013
04:30
M
18 °C 10 km+ 1,900 ft 270° 270° 9 kt METAR LFMK 180230Z AUTO 27009KT 240V300 9999 OVC019 18/15 Q1014
04:00
M
18 °C 10 km+ 2,000 ft 270° 270° 6 kt METAR LFMK 180200Z AUTO 27006KT 240V300 9999 BKN020 OVC032 18/15 Q1014
03:30
M
18 °C 10 km+ 1,900 ft 260° 260° 6 kt METAR LFMK 180130Z AUTO 26006KT 230V290 9999 BKN019 BKN024 BKN032 18/16 Q1014
03:00
V
18 °C 10 km+ 3,300 ft 270° 270° 7 kt METAR LFMK 180100Z AUTO 27007KT 9999 FEW018 BKN033 BKN080 18/15 Q1014
02:30
M
19 °C 10 km+ 2,400 ft 280° 280° 9 kt METAR LFMK 180030Z AUTO 28009KT 240V300 9999 FEW019 BKN024 BKN044 19/15 Q1015
02:00
V
19 °C 10 km+ - 280° 280° 12 kt METAR LFMK 180000Z AUTO 28012KT 9999 FEW026 SCT100 19/15 Q1015
01:30
V
20 °C 10 km+ - 270° 270° 11 kt METAR LFMK 172330Z AUTO 27011KT CAVOK 20/15 Q1015
01:00
V
20 °C 10 km+ 7,800 ft 270° 270° 8 kt METAR LFMK 172300Z AUTO 27008KT 230V300 9999 OVC078 20/15 Q1015
00:30
V
21 °C 10 km+ 8,600 ft 270° 270° 9 kt METAR LFMK 172230Z AUTO 27009KT 220V290 9999 FEW048 OVC086 21/15 Q1015
00:00
V
21 °C 10 km+ 8,800 ft 270° 270° 10 kt METAR LFMK 172200Z AUTO 27010KT 9999 FEW072 OVC088 21/15 Q1015

August 17, 2022

Time Code Weather Temp. Visibility Ceiling Wind METAR/SPECI
23:30
V
22 °C 10 km+ 6,600 ft 270° 270° 10 kt METAR LFMK 172130Z AUTO 27010KT 9999 FEW056 BKN066 OVC078 22/14 Q1014
23:00
V
22 °C 10 km+ 9,200 ft 270° 270° 9 kt METAR LFMK 172100Z AUTO 27009KT 240V300 9999 FEW060 SCT076 OVC092 22/14 Q1014
22:30
V
23 °C 10 km+ 8,800 ft 270° 270° 12 kt METAR LFMK 172030Z AUTO 27012KT 240V300 9999 FEW052 BKN088 23/14 Q1013
22:00
V
23 °C 10 km+ 5,600 ft 270° 270° 10 kt METAR LFMK 172000Z AUTO 27010KT 230V300 9999 BKN056 OVC068 23/14 Q1012
21:30
V
23 °C 10 km+ - 260° 260° 7 kt METAR LFMK 171930Z AUTO 26007KT 220V280 9999 SCT072 23/15 Q1012
21:00
V
24 °C 10 km+ 5,800 ft 260° 260° 8 kt METAR LFMK 171900Z AUTO 26008KT 230V290 9999 OVC058/// ///CB 24/15 Q1011
20:30
V
23 °C 10 km+ 5,800 ft 230° 230° 4 kt METAR LFMK 171830Z AUTO 23004KT 200V270 9999 BKN058/// BKN068/// //////CB 23/16 Q1012
20:00
V
23 °C 10 km+ 22,000 ft 230° 230° 4 kt METAR LFMK 171800Z AUTO 23004KT 200V270 9999 FEW058 BKN220 OVC240 23/15 Q1012 TEMPO VRB15G25KT 4000 TSRA BKN014 SCT035CB
19:30
V
23 °C 10 km+ - 260° 260° 7 kt METAR LFMK 171730Z AUTO 26007KT 230V290 CAVOK 23/15 Q1011 TEMPO VRB15G25KT 4000 TSRA BKN014 SCT035CB
19:00
V
24 °C 10 km+ - 270° 270° 8 kt METAR LFMK 171700Z AUTO 27008KT CAVOK 24/15 Q1010 TEMPO VRB15G25KT 4000 TSRA BKN014 SCT035CB
18:30
V
24 °C 10 km+ - 270° 270° 8 kt METAR LFMK 171630Z AUTO 27008KT 240V300 9999 FEW047 24/16 Q1011 TEMPO VRB15G25KT 4000 TSRA BKN014 SCT035CB
18:00
V
22 °C 10 km+ 6,200 ft 170° 170° 4 kt METAR LFMK 171600Z AUTO 17004KT 110V240 9999 FEW045/// SCT052/// BKN062/// ///TCU 22/18 Q1011 TEMPO VRB15G25KT 4000 TSRA BKN014 SCT035CB
17:30
V
21 °C 10 km+ 4,400 ft 160° 160° 4 kt METAR LFMK 171530Z AUTO 16004KT 100V260 9999 BKN044/// BKN056/// OVC170/// //////CB 21/17 Q1011 TEMPO VRB15G25KT 4000 TSRA BKN014 SCT035CB
17:00
V
20 °C 10 km+ 15,000 ft Var Var 2 kt METAR LFMK 171500Z AUTO VRB02KT 9999 FEW041/// BKN150/// BKN170/// //////TCU 20/17 Q1011 TEMPO VRB15G25KT 4000 TSRA BKN014 SCT035CB
16:30
V
21 °C 10 km+ 9,800 ft 230° 230° 4 kt METAR LFMK 171430Z AUTO 23004KT 180V280 9999 -RA SCT034/// SCT064/// BKN098/// ///TCU 21/17 Q1011 TEMPO VRB15G25KT 4000 TSRA BKN014 SCT035CB
16:00
V
21 °C 10 km+ 10,000 ft 280° 280° 9 kt METAR LFMK 171400Z AUTO 28009KT 9999 -RA FEW052/// SCT084/// OVC100/// //////CB 21/16 Q1010 TEMPO SCT020 BKN045
15:30
V
22 °C 10 km+ 4,900 ft 270° 270° 11 kt METAR LFMK 171330Z AUTO 27011KT 9999 -RA FEW032/// OVC049/// ///CB 22/16 Q1011 TEMPO SCT020 BKN045
15:00
V
22 °C 10 km+ 4,600 ft 280° 280° 15 kt METAR LFMK 171300Z AUTO 28015KT 240V310 9999 BKN046/// BKN054/// //////CB 22/16 Q1011 TEMPO 32015G25KT BECMG SCT020 BKN045
14:30
V
23 °C 10 km+ - 280° 280° 15 kt METAR LFMK 171230Z AUTO 28015KT 250V310 9999 FEW058 SCT068 23/16 Q1010 TEMPO 32015G25KT SCT035TCU
14:00
V
22 °C 10 km+ 6,800 ft 270° 270° 11 kt METAR LFMK 171200Z AUTO 27011KT 240V300 9999 BKN068 BKN120 22/16 Q1011 TEMPO 32015G25KT SCT035TCU
13:30
V
23 °C 10 km+ 6,400 ft 280° 280° 12 kt METAR LFMK 171130Z AUTO 28012KT 9999 FEW047/// OVC064/// ///TCU 23/16 Q1011 TEMPO 32015G25KT
13:00
V
22 °C 10 km+ 4,700 ft 280° 280° 10 kt METAR LFMK 171100Z AUTO 28010KT 9999 OVC047/// ///CB 22/16 Q1011 TEMPO 32015G25KT
12:30
V
21 °C 10 km+ 4,800 ft 270° 270° 9 kt METAR LFMK 171030Z AUTO 27009KT 9999 OVC048/// //////TCU 21/16 Q1011 TEMPO 32015G25KT
12:00
V
22 °C 10 km+ 4,700 ft 280° 280° 10 kt METAR LFMK 171000Z AUTO 28010KT 220V310 9999 FEW022 OVC047 22/16 Q1011 TEMPO 32015G25KT SCT035TCU
11:30
V
22 °C 10 km+ 4,600 ft 290° 290° 9 kt METAR LFMK 170930Z AUTO 29009KT 9999 FEW020 BKN046 22/16 Q1011 TEMPO 32015G25KT SCT035TCU
11:00
V
21 °C 10 km+ 4,600 ft 280° 280° 9 kt METAR LFMK 170900Z AUTO 28009KT 9999 FEW018 OVC046 21/16 Q1011 NOSIG
10:30
V
20 °C 10 km+ 4,600 ft 280° 280° 8 kt METAR LFMK 170830Z AUTO 28008KT 240V300 9999 FEW017 OVC046 20/16 Q1011 NOSIG
10:00
V
19 °C 10 km+ 4,900 ft 270° 270° 9 kt METAR LFMK 170800Z AUTO 27009KT 230V300 9999 FEW017 OVC049 19/16 Q1011 NOSIG
09:30
V
19 °C 10 km+ 5,800 ft 260° 260° 6 kt METAR LFMK 170730Z AUTO 26006KT 230V290 9999 FEW016 OVC058 19/16 Q1011 NOSIG
09:00
V
19 °C 10 km+ 14,000 ft 270° 270° 7 kt METAR LFMK 170700Z AUTO 27007KT 220V300 9999 FEW014 BKN140 19/16 Q1011 TEMPO 27015G25KT FEW050CB SCT060TCU
08:30
V
18 °C 10 km+ 14,000 ft 260° 260° 5 kt METAR LFMK 170630Z AUTO 26005KT 220V300 9999 FEW013 SCT043 BKN140 18/16 Q1011 TEMPO 27015G25KT FEW050CB SCT060TCU
08:00
M
18 °C 10 km+ 1,400 ft 280° 280° 5 kt METAR LFMK 170600Z AUTO 28005KT 240V300 9999 BKN014 BKN043 OVC060 18/16 Q1011 TEMPO 27015G25KT FEW050CB SCT060TCU
07:30
V
18 °C 10 km+ 4,300 ft 270° 270° 5 kt METAR LFMK 170530Z AUTO 27005KT 240V300 9999 BKN043 OVC060 18/16 Q1011 TEMPO 27015G25KT FEW050CB SCT060TCU
07:00
V
18 °C 10 km+ 4,300 ft 260° 260° 5 kt METAR LFMK 170500Z AUTO 26005KT 230V290 9999 SCT016 BKN043 18/15 Q1011 TEMPO 27015G25KT FEW050CB SCT060TCU
06:30
M
18 °C 10 km+ 1,500 ft 270° 270° 8 kt METAR LFMK 170430Z AUTO 27008KT 250V310 9999 OVC015 18/16 Q1011 TEMPO 27015G25KT FEW050CB SCT060TCU
06:00
V
18 °C 10 km+ - 270° 270° 5 kt METAR LFMK 170400Z AUTO 27005KT 230V300 9999 SCT016 18/16 Q1010 TEMPO 27015G25KT FEW050CB SCT060TCU
05:30
V
18 °C 10 km+ - 270° 270° 7 kt METAR LFMK 170330Z AUTO 27007KT CAVOK 18/16 Q1010 TEMPO 27015G25KT FEW050CB SCT060TCU
05:00
V
18 °C 10 km+ - 270° 270° 8 kt METAR LFMK 170300Z AUTO 27008KT 240V300 CAVOK 18/16 Q1011
04:30
V
19 °C 10 km+ 13,000 ft 270° 270° 12 kt METAR LFMK 170230Z AUTO 27012KT 240V300 9999 SCT046 BKN130 19/16 Q1010
04:00
V
19 °C 10 km+ - 270° 270° 12 kt METAR LFMK 170200Z AUTO 27012KT 9999 FEW046 SCT130 19/17 Q1010
03:30
V
20 °C 10 km+ 7,000 ft 260° 260° 6 kt METAR LFMK 170130Z AUTO 26006KT 230V290 9999 FEW037 BKN070 BKN140 20/17 Q1010
03:00
V
19 °C 10 km+ 7,000 ft 270° 270° 7 kt METAR LFMK 170100Z AUTO 27007KT 9999 FEW037 BKN070 BKN140 19/17 Q1010
02:30
V
19 °C 10 km+ 6,600 ft 270° 270° 4 kt METAR LFMK 170030Z AUTO 27004KT 230V290 9999 OVC066 19/18 Q1010
02:00
M
18 °C 7 km - 280° 280° 3 kt METAR LFMK 170000Z AUTO 28003KT 7000 FEW062 18/18 Q1009
01:30
M
18 °C 7 km - Var Var 1 kt METAR LFMK 162330Z AUTO VRB01KT 7000 NSC 18/17 Q1009
01:00
V
19 °C 9 km - Var Var 2 kt METAR LFMK 162300Z AUTO VRB02KT 9000 NSC 19/18 Q1009
00:30
V
19 °C 10 km+ - Var Var 3 kt METAR LFMK 162230Z AUTO VRB03KT CAVOK 19/18 Q1009
00:00
V
20 °C 10 km+ - Var Var 3 kt METAR LFMK 162200Z AUTO VRB03KT CAVOK 20/18 Q1009

August 16, 2022

Time Code Weather Temp. Visibility Ceiling Wind METAR/SPECI
23:30
V
21 °C 10 km+ - 260° 260° 6 kt METAR LFMK 162130Z AUTO 26006KT 230V290 CAVOK 21/17 Q1009
23:00
V
20 °C 10 km+ - 260° 260° 3 kt METAR LFMK 162100Z AUTO 26003KT 210V300 CAVOK 20/18 Q1009
22:30
V
20 °C 10 km+ - Var Var 2 kt METAR LFMK 162030Z AUTO VRB02KT CAVOK 20/19 Q1009
22:00
V
20 °C 10 km+ - 290° 290° 1 kt METAR LFMK 162000Z AUTO 29001KT CAVOK 20/19 Q1009
21:30
V
21 °C 10 km+ - Var Var 2 kt METAR LFMK 161930Z AUTO VRB02KT CAVOK 21/19 Q1008
21:00
V
22 °C 9 km - 240° 240° 5 kt METAR LFMK 161900Z AUTO 24005KT 200V280 9000 NSC 22/20 Q1008
20:30
V
22 °C 10 km+ - Var Var 3 kt METAR LFMK 161830Z AUTO VRB03KT CAVOK 22/20 Q1007
20:00
V
23 °C 10 km+ - Var Var 2 kt METAR LFMK 161800Z AUTO VRB02KT CAVOK 23/20 Q1007 BECMG SCT050 FEW060CB BKN120
19:30
V
22 °C 10 km+ - Var Var 2 kt METAR LFMK 161730Z AUTO VRB02KT 9999 FEW037/// SCT064/// //////CB 22/19 Q1007 BECMG 09015G25KT
19:00
I
22 °C 3.4 km 4,700 ft 280° 280° 4 kt METAR LFMK 161700Z AUTO 28004KT 220V320 9999 3400 RA VCTS FEW028/// SCT041/// BKN047/// ///CB 22/18 Q1008 TEMPO 4000 TSRA BECMG 09015G25KT
18:30
V
22 °C 10 km+ 4,200 ft 330° 330° 6 kt METAR LFMK 161630Z AUTO 33006KT 300V360 9999 VCTS OVC042/// ///CB 22/16 Q1007 TEMPO 4000 TSRA BECMG 09015G25KT
18:00
V
22 °C 10 km+ 4,100 ft 300° 300° 12 kt METAR LFMK 161600Z AUTO 30012KT 270V350 9999 TS BKN041/// BKN066/// BKN076/// //////CB 22/17 Q1007 TEMPO VRB20G30KT 4000 TSRA
17:30
V
24 °C 10 km+ 6,800 ft 290° 290° 9 kt METAR LFMK 161530Z AUTO 29009KT 250V350 9999 TS FEW038/// BKN068/// OVC100/// ///CB 24/20 Q1007 TEMPO VRB20G30KT 4000 TSRA
17:00
V
24 °C 10 km+ 10,000 ft 050° 050° 14 kt METAR LFMK 161500Z AUTO 05014KT 9999 RA VCTS FEW023/// SCT052/// OVC100/// ///CB 24/20 Q1005 TEMPO VRB20G30KT 4000 TSRA
Older data

We and third parties follow your internet behavior on our website with cookies. If you continue, we assume you agree with our cookie policy. Learn more